Home   Weather   Gothenburg   Past weeks

Flag for Sweden Past Weather in Gothenburg, Sweden — Yesterday and Last 2 Weeks

Now
37 °F

Passing clouds.


Feels Like: 35 °F
Forecast: 34 / 47 °F
Wind: 3 mph from Northwest

Location: Gothenburg / Landvetter

Current Time: Apr 26, 2017 at 9:51:27 am

Latest Report: Apr 26, 2017 at 9:20 am


Visibility: N/A

Pressure: 29.71 "Hg

Humidity: 75%

Dew Point: 30 °F

Location of GothenburgLocation

Past Weather in Gothenburg — Graph

°F

Gothenburg Temperature Yesterday

Maximum temperature yesterday: 41 °F (at 4:50 pm)
Minimum temperature yesterday: 32 °F (at 9:20 am)
Average temperature yesterday: 35 °F

High & Low Weather Summary for the Past Weeks

 TemperatureHumidityPressure
High52 °F (Apr 22, 2:50 pm)100% (Apr 12, 12:50 am)30.57 "Hg (Apr 12, 12:50 am)
Low25 °F (Apr 15, 12:50 am)24% (Apr 22, 2:50 pm)29.33 "Hg (Apr 25, 3:50 am)
Average38 °F73%29.84 "Hg
* Reported Apr 11 8:20 am — Apr 26 8:20 am, Gothenburg, Weather by CustomWeather, © 2017

Note: Actual official high and low records may vary slightly from our data, if they occured in-between our weather recording intervals... More about our weather records

Advertising

Gothenburg Weather History for the Previous 24 Hours

Scroll right to see more
 ConditionsComfort  
Time TempWeatherWind HumidityBarometerVisibility
8:20 am
Wed, Apr 26
36 °FSunny.8 mph81%29.71 "Hg10 mi
7:20 am32 °FSunny.3 mph87%29.68 "Hg10 mi
6:50 am32 °FSunny.6 mph87%29.68 "Hg10 mi
6:20 am30 °FSunny.8 mph93%29.68 "Hg10 mi
5:50 am30 °FSunny.7 mph86%29.65 "Hg10 mi
5:20 am30 °FClear.6 mph86%29.65 "Hg10 mi
4:50 am30 °FClear.6 mph93%29.65 "Hg10 mi
4:20 am30 °FClear.5 mph93%29.62 "Hg10 mi
3:50 am30 °FClear.6 mph93%29.62 "Hg10 mi
3:20 am30 °FClear.5 mph93%29.62 "Hg10 mi
2:50 am30 °FClear.6 mph93%29.62 "Hg10 mi
2:20 am32 °FClear.6 mph87%29.59 "HgN/A
1:50 am32 °FPassing clouds.6 mph87%29.59 "HgN/A
1:20 am32 °FClear.6 mph87%29.59 "Hg10 mi
12:50 am32 °FClear.5 mph93%29.59 "Hg10 mi
12:20 am32 °FPassing clouds.6 mph93%29.56 "HgN/A
11:50 pm
Tue, Apr 25
32 °FClear.7 mph93%29.56 "Hg10 mi
11:20 pm32 °FClear.3 mph93%29.56 "Hg10 mi
10:50 pm34 °FClear.5 mph87%29.53 "Hg10 mi
10:20 pm34 °FClear.6 mph87%29.53 "Hg10 mi
9:50 pm34 °FClear.6 mph87%29.53 "Hg10 mi
9:20 pm34 °FClear.6 mph93%29.53 "Hg10 mi
8:50 pm36 °FClear.6 mph87%29.50 "Hg10 mi
8:20 pm36 °FScattered clouds.7 mph87%29.50 "HgN/A
7:50 pm36 °FScattered clouds.6 mph93%29.50 "HgN/A
7:20 pm36 °FBroken clouds.5 mph87%29.47 "HgN/A
6:50 pm36 °FRain showers. Mostly cloudy.9 mph87%29.47 "HgN/A
6:20 pm37 °FRain showers. Broken clouds.14 mph81%29.47 "HgN/A
5:50 pm36 °FRain showers. Partly sunny.7 mph93%29.45 "HgN/A
5:20 pm34 °FScattered showers. Partly sunny.10 mph93%29.45 "HgN/A
4:50 pm41 °FOvercast.8 mph76%29.45 "HgN/A
4:20 pm37 °FPartly sunny.12 mph87%29.45 "HgN/A
3:50 pm37 °FBroken clouds.7 mph87%29.42 "HgN/A
3:20 pm39 °FScattered showers. Broken clouds.8 mph81%29.42 "HgN/A
2:50 pm37 °FBroken clouds.10 mph87%29.42 "HgN/A
2:20 pm36 °FLight rain. Cloudy.8 mph93%29.42 "HgN/A
1:50 pm37 °FMostly cloudy.7 mph81%29.39 "HgN/A
1:20 pm37 °FPartly sunny.8 mph81%29.39 "HgN/A
12:50 pm36 °FBroken clouds.8 mph93%29.39 "HgN/A
12:20 pm39 °FSprinkles. Broken clouds.14 mph87%29.36 "HgN/A
11:50 am37 °FPartly sunny.15 mph93%29.36 "HgN/A
11:20 am36 °FSnow flurries. Broken clouds.13 mph93%29.36 "HgN/A
10:50 am37 °FLight snow. Partly sunny.12 mph93%29.36 "HgN/A
10:20 am36 °FBroken clouds.8 mph93%29.36 "HgN/A
9:50 am32 °FLight snow. Partly sunny.6 mph93%29.36 "Hg3 mi
9:20 am32 °FSnow. Dense fog.9 mph93%29.33 "Hg1 mi
Weather by CustomWeather, © 2017

See weather overviewHow to use our weather pages